Regional Weather Roundup
Issued by NWS Wakefield, VA

Home | Current Version | Previous Version | Graphics & Text | Print | Product List | Glossary On
Versions: 1 2 3 4 5 6 7 8 9 10 11 12 13 14 15 16 17 18 19 20 21 22 23 24 25 26 27 28 29 30 31 32 33 34 35 36 37 38 39 40 41 42 43 44 45 46 47 48 49 50
000
ASUS41 KAKQ 282315
RWRAKQ

REGIONAL WEATHER ROUNDUP
NATIONAL WEATHER SERVICE WAKEFIELD VA
700 PM EDT THU MAY 28 2015

Note: "fair" indicates few or no clouds below 12,000 feet with no
significant weather and/or obstructions to visibility. * = Denotes
station may not report precipitation (e.g., rain,snow,etc.),
thunder or fog.

VAZ042-051-052>054-056-290000-
NORTHERN VIRGINIA

CITY           SKY/WX    TMP DP  RH WIND       PRES   REMARKS
WASH NATIONAL  TSTM      78  67  68 W14G22    30.15S
DULLES         PTSUNNY   80  67  64 CALM      30.16S
FORT BELVOIR   PTSUNNY   80  67  64 NW5       30.15R
QUANTICO       PTSUNNY   81  67  62 NW5       30.15F
FREDERICKSBRG* PTSUNNY   83  70  62 CALM      30.14S
STAFFORD*      PTSUNNY   80  71  74 CALM      30.19S
WARRENTON      PTSUNNY   82  69  65 E3        30.16S
CULPEPER*      CLOUDY    80  64  57 CALM      30.16F
MANASSAS*      MOSUNNY   75  70  83 CALM      30.15F
LEESBURG*      CLOUDY    82  70  65 W5        30.17R
WINCHESTER     HVY RAIN  77  63  61 S14       30.19R
FRONT ROYAL*   FAIR      77  64  65 CALM      30.16S
LURAY*         CLOUDY    81  68  65 SW10G16   30.19R
$$

VAZ048-049-060>072-079>083-290000-
CENTRAL AND SOUTH CENTRAL VIRGINIA

CITY           SKY/WX    TMP DP  RH WIND       PRES   REMARKS
RICHMOND       PTSUNNY   83  67  58 S6        30.15R THUNDER
CHESTERFIELD*  NOT AVBL
PETERSBURG*    SUNNY     81  72  74 CALM      30.16S
HANOVER        PTSUNNY   82  67  60 CALM      30.17S
TAPPAHANNOCK*  MOSUNNY   83  66  56 E3        30.16S
QUINTON*       FAIR      84  68  57 SE3       30.15R
CHARLOTTSVILLE PTSUNNY   78  63  59 N5        30.17F
GORDONSVILLE*  FAIR      71  69  92 CALM      30.16S
ORANGE*        CLOUDY    77  68  73 S5        30.18F
LOUISA*        DRIZZLE   75  70  83 N5        30.15F
BUMPASS*       FAIR      80  70  72 NW6       30.15S
FARMVILLE*     CLOUDY    77  65  68 SW6       30.16R
CREWE*         FAIR      79  71  75 CALM      30.16R
FORT PICKETT*  FAIR      79  70  73 SE5       30.16R
CHASE CITY*    FAIR      81  71  69 CALM      30.17R
CLARKSVILLE*   FAIR      81  66  61 CALM      30.16R
SOUTH HILL*    MOSUNNY   83  65  54 CALM      30.22R
LAWRENCEVILLE* FAIR      82  68  61 CALM      30.16R
EMPORIA*       MOSUNNY   82  70  65 E7        30.17S
$$

VAZ088>098-290000-
SOUTHEAST VIRGINIA

CITY           SKY/WX    TMP DP  RH WIND       PRES   REMARKS
NORFOLK        PTSUNNY   78  70  76 SE7       30.17R
VIRGINIA BEACH PTSUNNY   80  65  59 SE9       30.17R
NORFOLK NAVAL  PTSUNNY   85  70  60 SE8       30.18R
WEST POINT*    MOSUNNY   85  67  55 SE8       30.17S
SALUDA*        FAIR      80  67  65 S10       30.16S
NEWPORT NEWS   MOSUNNY   85  69  58 E3        30.17S
LANGLEY AFB    MOSUNNY   82  71  68 SE5       30.16S
FORT EUSTIS    MOSUNNY   79  72  78 SE6       30.15S
WILLIAMSBURG*  MOSUNNY   82  72  69 SE8       30.17S
HR EXEC AP*    FAIR      79  70  73 CALM      30.18S
FRANKLIN*      MOSUNNY   79  72  78 CALM      30.16S
WAKEFIELD      SUNNY     83  70  64 VRB3      30.15S
$$

VAZ020-022-025-037-045-290000-
WEST CENTRAL AND SOUTHWEST VIRGINIA

CITY           SKY/WX    TMP DP  RH WIND       PRES   REMARKS
STAUNTON*      PTSUNNY   82  65  56 CALM      30.22R
WAYNESBORO*    FAIR      78  65  64 E7        30.21S
HOT SPRINGS VA PTSUNNY   70  58  66 CALM      30.31F
LYNCHBURG      CLOUDY    78  66  66 SE5       30.21R
DANVILLE       PTSUNNY   77  63  61 N6        30.17R
SOUTH BOSTON*  MOCLDY    80  69  69 CALM      30.16R
MARTINSVILLE   PTSUNNY   77  68  74 NE3       30.20S
ROANOKE        PTSUNNY   81  62  52 NE9       30.20S
BLACKSBURG     PTSUNNY   73  67  83 CALM      30.27R
DUBLIN*        CLOUDY    75  65  70 NE3       30.25F
MARION*        CLOUDY    71  61  70 NE13      30.28S
HILLSVILLE*    NOT AVBL
RICHLANDS*     MOCLDY    73  62  68 SE17G23   30.25R
WISE*          PTSUNNY   73  61  64 CALM      30.26R THUNDER
ABINGDON*      CLOUDY    71  64  77 NW3       30.23R
$$

MDZ021>025-VAZ099-100-290000-
SOUTHERN MARYLAND AND THE DELMARVA PENINSULA

CITY           SKY/WX    TMP DP  RH WIND       PRES   REMARKS
PATUXENT RIVER PTSUNNY   78  70  76 SE9       30.15S
BAY BRIDGE APT   N/A    N/A N/A N/A CALM      30.15R
LEONARDTOWN    MOSUNNY   81  68  65 SE5       30.17S
DOVER          CLOUDY    79  70  73 E2        30.13R
GEORGETOWN     PTSUNNY   82  69  64 S10       30.16R
EASTON         MOSUNNY   84  68  58 SW7       30.19R
CAMBRIDGE      MOSUNNY   81  68  65 S6        30.16R
SALISBURY      PTSUNNY   78  69  73 MISG      30.17R
OCEAN CITY     PTSUNNY   73  65  75 SW13G20   30.18S
WALLOPS ISLAND PTSUNNY   73  65  75 S14       30.19S
ACCOMACK*      CLOUDY    77  68  73 S12       30.18R
$$

NCZ012>017-030>032-290000-
NORTH CENTRAL AND EASTERN NORTH CAROLINA

CITY           SKY/WX    TMP DP  RH WIND       PRES   REMARKS
ROANOKE RAPIDS FAIR      81  64  57 CALM      30.16R
RALEIGH        MOSUNNY   83  67  58 SE6       30.15S
ELIZABETH CITY MOSUNNY   80  64  58 SE8       30.19R
AHOSKIE*       MOSUNNY   79  70  73 S3        30.16F
EDENTON*         N/A     81  66  60 S10       30.18S
CURRITUCK*     MOSUNNY   79  63  57 S5        30.19S
KILL DEVIL HLS MOSUNNY   77  63  61 S8        30.19S
MANTEO         MOSUNNY   76  64  65 S12       30.20S
CAPE HATTERAS  SUNNY     77  59  53 SE7       30.21F
TARBORO*       HVY RAIN  82  69  64 E7G17     30.17R
GOLDSBORO      MOSUNNY   83  67  58 S5        30.14R
WASHINGTON     SUNNY     81  66  60 SE7       30.18R
GREENVILLE     MOSUNNY   81  68  65 SE7       30.18R
NEW BERN       SUNNY     81  63  54 S10       30.19S
WILMINGTON     SUNNY     78  61  55 SE9       30.18S
$$

VAZ048-290000-
ELSEWHERE

CITY           SKY/WX    TMP DP  RH WIND       PRES   REMARKS
HARRISBURG PA  PTSUNNY   81  65  58 W5        30.15S
BALTIMORE      PTSUNNY   84  68  58 S7        30.13S
ANNAPOLIS      PTSUNNY   79  66  64 S10       30.15R
ANDREWS AFB    TSTM      75  68  78 NW21G26   30.16R
PHILADELPHIA   PTSUNNY   83  65  54 SW7       30.15R
HENDERSON NC   SUNNY     82  62  50 CALM      30.17R
GREENSBORO     PTSUNNY   82  65  56 S13       30.16S
ROCKY MOUNT    SUNNY     84  68  58 SE3       30.15F
$$

VAZ100-290000-
MARINE

STATION/POSITION TIME  TEMP    WIND        PRES    WAVE   SWELL
                       AIR SEA DIR/SP/G            HT/PER HT/PER
                 (UTC) (F)     (DEG/KT/KT) (MB)    (FT/S) (FT/S)
BRANDYWINE LGT   2200   68 65  180/ 17/ 17 1020.8F
CAPE MAY NJ      2200   69 72  160/  9/ 13 1020.7F
LEWES DE         2200   80 67  170/  8/ 11 1020.6F
15NM E FENWICK I 2250   66 63              1021.7R   3/ 8
OCEAN-CITY-INLET 2200   63 57  210/ 12/ 15 1021.7F
WACHAPREAGUE VA  2200   72 77  190/ 11/ 12 1022.0F
THOMAS POINT MD  2300   73 73  190/ 12/ 13 1021.4R
GOOSES REEF MD   2300   74 70  170/ 12/ 12 1022.0R   1/ 2
COVE POINT MD    2200   73     190/ 12/ 14 1021.7F
SOLOMONS ISLAND  2200      78                N/A
BISHOPS HEAD MD  2200   77 81  160/ 10/ 11 1020.9F
PINEY POINT MD   2200          140/  6/  6   N/A
CAMBRIDGE MD     2200   81 73  190/  7/ 10 1020.8F
LEWISETTA VA     2200   79 77              1020.6F
RAPPAHANNOCK LGT 2200          140/ 11/ 12 1022.1F
STINGRAY PT      2300   74 74  170/ 12/ 14 1021.9R   2/ 2
YORK RVR RNG VA  2200   74     130/  6/  7 1020.9F
YORKTOWN VA      2200   76 71  110/  6/  7 1021.3S
JAMESTOWN VA     2300   80 77  130/  8/ 10 1020.1F
DOMINION TERM VA 2200   78      80/  5/  7 1021.4F
KIPTOPEKE VA     2200      79  170/ 14/ 17   N/A
CHES BAY BRIDGE  2200   76 71  120/  7/ 10 1021.2F
CAPE HENRY VA    2200   73     140/ 11/ 13 1020.3F
CHESAPEAKE LGHT  2200   69     170/ 25/ 25 1021.9F
WILLOUBY STN VA  2200   78     130/  8/  9 1022.1F
CAPE HENRY BUOY  2228      62                N/A     3/ 8
1ST LANDING BUOY 2300      72              1021.3R
CAPE CHARLES BUO 2226      70                N/A     3/ 8   2/ 8
OFFSHORE WE BUOY 2211      66                N/A     3/ 8   3/ 8
64NM E OF VA BCH 2250   69 66  160/  6/  8 1022.5F   3/ 8   3/ 8
DUCK PIER NC     2200   67 57  140/ 10/ 12 1021.4F
44100 DUCK FRF   2224      66                N/A     2/ 8
44056 DUCK FRF   2211      63                N/A     2/ 8
OREGON INLET NC  2200   76 79  170/  8/ 10 1023.0F
HATTERAS NC      2200   76 77  160/  6/  7 1022.7F
DIAMOND SHLS NC  2250   76 78  130/  8/ 10 1023.0F   4/ 8   3/ 8
CAPE LOOKOUT NC  2300   75     140/  7/  9 1022.3F
$$


USA.gov is the U.S. government's official web portal to all federal, state and local government web resources and services.